[[{"header":{"parameterUnit":"m.s-1","parameterCategory":1,"la1":30.2991,"la2":30.254,"lo1":-89.0895,"lo2":-89.0444,"dy":0.0017,"dx":0.0017,"nx":28,"ny":28,"refTime":"2024-03-15T21:00:00:Z","depth":0,"parameterNumber":2,"parameterNumberName":"U-component_of_WINDS"},"data":[0,0,0,0,0,0,0,0,0,0,0,0,0,0,0,0,0,0,0,0,0,0,0,0,0,0,0,0,0,0,0,0,0,0,0,0,0,0,0,0,0,0,0,0,0,0,0,0,0,0,0,0,0,0,0,0,0,0,-0.6401,-0.6401,0,-0.6425,-0.6425,-0.6425,-0.643,-0.643,-0.643,-0.643,-0.6454,-0.6455,-0.6456,0,0,0,0,0,0,0,0,0,0,0,0,0,-0.6359,-0.6359,-0.6401,-0.6401,-0.6402,-0.6425,-0.6425,-0.6425,-0.643,-0.643,-0.643,-0.643,-0.6454,-0.6455,-0.6456,0,0,0,0,0,0,0,0,0,0,0,0,0,-0.6379,-0.636,-0.6401,-0.6407,-0.6408,-0.6425,-0.6425,-0.6426,-0.6431,-0.643,-0.643,-0.643,-0.6454,-0.6455,-0.6456,-0.6469,0,0,-0.646,-0.6461,0,0,0,0,0,0,0,0,-0.6378,-0.6381,-0.6406,-0.6407,-0.6407,-0.6424,-0.6419,-0.644,-0.6431,-0.6422,-0.643,-0.643,-0.6445,-0.6447,-0.6452,-0.647,-0.6471,-0.646,-0.6461,-0.6461,-0.6462,0,0,0,0,0,0,0,-0.6377,-0.638,-0.6411,-0.6406,-0.6407,-0.6408,-0.6411,-0.6423,-0.6435,-0.6423,-0.6423,-0.6426,-0.6445,-0.6451,-0.6452,-0.6472,-0.646,-0.6461,-0.6462,-0.6462,-0.65,-0.65,0,0,0,0,0,0,-0.6374,-0.6379,-0.641,-0.6411,-0.6392,-0.6409,-0.6412,-0.6419,-0.6434,-0.6436,-0.6426,-0.6426,-0.6449,-0.6451,-0.6453,-0.6468,-0.6461,-0.6463,-0.6463,-0.65,-0.65,-0.65,0,0,0,0,0,0,-0.6373,-0.6377,-0.6409,-0.6395,-0.6399,-0.641,-0.6418,-0.642,-0.6425,-0.6437,-0.6439,-0.643,-0.6448,-0.6452,-0.6465,-0.6469,-0.6463,-0.6464,-0.6499,-0.65,-0.65,-0.6499,0,0,0,0,0,0,-0.6372,-0.6377,-0.6382,-0.6395,-0.64,-0.642,-0.6418,-0.6421,-0.6427,-0.6428,-0.6441,-0.6443,-0.6448,-0.6463,-0.6466,-0.6471,-0.6465,-0.6499,-0.65,-0.65,-0.6499,-0.65,-0.65,0,0,0,0,0,-0.6371,-0.6382,-0.6382,-0.6386,-0.6407,-0.6421,-0.6423,-0.643,-0.6428,-0.6433,-0.644,-0.6442,-0.6468,-0.6464,-0.6468,-0.6473,-0.6499,-0.65,-0.65,-0.6499,-0.65,-0.65,0,0,0,0,0,0,-0.637,-0.6383,-0.6385,-0.64,-0.6409,-0.6422,-0.6429,-0.6431,-0.6441,-0.644,-0.6448,-0.6451,-0.6463,-0.6469,-0.6465,-0.6485,-0.6483,-0.6485,-0.6481,-0.6482,-0.6482,-0.6481,-0.6466,0,0,0,0,0,-0.6371,-0.6381,-0.6393,-0.6405,-0.6409,-0.6418,-0.6424,-0.6428,-0.6438,-0.6442,-0.645,-0.6459,-0.6469,-0.6476,-0.6486,-0.6499,-0.6502,-0.6505,-0.6505,-0.6506,-0.6507,-0.6513,-0.6514,-0.6502,-0.6502,-0.6502,0,0,-0.6375,-0.6383,-0.639,-0.6405,-0.6413,-0.6422,-0.6422,-0.6432,-0.644,-0.6444,-0.6457,-0.6462,-0.6473,-0.6486,-0.6492,-0.6492,-0.651,-0.6506,-0.6507,-0.6508,-0.6514,-0.6515,-0.6516,-0.6503,-0.6503,-0.6503,0,0,-0.6386,-0.6394,-0.6405,-0.6412,-0.6422,-0.6428,-0.643,-0.6442,-0.6446,-0.6458,-0.6461,-0.6469,-0.6487,-0.6494,-0.6499,-0.651,-0.6512,-0.6513,-0.6517,-0.6523,-0.6524,-0.6524,-0.6528,-0.6529,-0.6514,-0.6514,-0.6514,0,-0.639,-0.6405,-0.641,-0.642,-0.6426,-0.6429,-0.644,-0.6446,-0.646,-0.6464,-0.6462,-0.6483,-0.649,-0.6504,-0.6507,-0.6512,-0.6514,-0.6512,-0.6523,-0.6524,-0.6525,-0.6528,-0.6529,-0.6514,-0.6514,-0.6514,-0.6514,0,-0.6407,-0.6418,-0.6425,-0.6437,-0.6444,-0.6454,-0.646,-0.6466,-0.6469,-0.6474,-0.6486,-0.6494,-0.6505,-0.6509,-0.6512,-0.6523,-0.6522,-0.6522,-0.652,-0.6526,-0.6529,-0.653,-0.6514,-0.6514,-0.6514,-0.6514,0,0,-0.6422,-0.6434,-0.6437,-0.6442,-0.6452,-0.646,-0.647,-0.648,-0.6485,-0.6493,-0.6501,-0.6514,-0.6513,-0.652,-0.6523,-0.6528,-0.6535,-0.6528,-0.6528,-0.6528,-0.6547,-0.6547,-0.6548,-0.6536,-0.6536,-0.6537,-0.6546,0,-0.6434,-0.6451,-0.6455,-0.647,-0.6478,-0.648,-0.6488,-0.6495,-0.6499,-0.6507,-0.6511,-0.6521,-0.6519,-0.6523,-0.6528,-0.6533,-0.6539,-0.6533,-0.6543,-0.6543,-0.6541,-0.655,-0.6551,-0.6559,-0.6547,-0.6547,-0.6547,0,-0.6452,-0.646,-0.6475,-0.6483,-0.6486,-0.6494,-0.6502,-0.651,-0.6517,-0.6519,-0.6525,-0.6528,-0.6536,-0.6533,-0.6545,-0.654,-0.6544,-0.6547,-0.6548,-0.655,-0.6546,-0.6552,-0.6562,-0.6563,-0.6549,-0.6549,-0.6549,0,-0.646,-0.6474,-0.6485,-0.6489,-0.6498,-0.6503,-0.6507,-0.6514,-0.6519,-0.6526,-0.6529,-0.6538,-0.6542,-0.6548,-0.6552,-0.6549,-0.6563,-0.656,-0.6565,-0.6565,-0.6569,-0.6568,-0.6579,-0.6571,-0.6571,-0.6571,-0.6571,0,-0.6474,-0.6483,-0.6488,-0.6495,-0.6504,-0.6508,-0.6517,-0.6521,-0.6527,-0.6534,-0.6535,-0.6542,-0.6546,-0.6553,-0.6556,-0.6564,-0.6566,-0.6568,-0.6569,-0.6568,-0.6568,-0.6572,-0.6571,-0.6571,-0.6571,-0.6571,-0.6571,0,-0.6486,-0.6489,-0.6501,-0.6508,-0.6509,-0.6516,-0.6522,-0.6528,-0.6531,-0.654,-0.6542,-0.6547,-0.6554,-0.6558,-0.6568,-0.657,-0.658,-0.658,-0.6577,-0.6578,-0.6582,-0.6581,-0.6596,-0.6597,-0.6587,-0.6587,-0.6588,0,-0.6495,-0.6501,-0.6509,-0.6513,-0.6517,-0.6524,-0.6529,-0.6531,-0.6536,-0.6544,-0.6548,-0.6556,-0.6562,-0.6574,-0.6578,-0.6585,-0.6585,-0.659,-0.6587,-0.6585,-0.6585,-0.6585,-0.6585,-0.6591,-0.6591,-0.6591,-0.6591,0,-0.651,-0.6511,-0.6518,-0.6524,-0.6529,-0.6535,-0.6541,-0.6544,-0.6547,-0.6552,-0.656,-0.6564,-0.6573,-0.658,-0.6587,-0.6591,-0.6591,-0.6592,-0.6593,-0.6593,-0.6591,-0.6591,-0.6579,-0.6592,-0.6592,-0.6592,-0.6592,-0.6592,-0.6521,-0.6526,-0.6531,-0.6538,-0.6542,-0.6546,-0.6552,-0.6555,-0.6561,-0.6568,-0.6569,-0.6577,-0.6582,-0.6591,-0.6594,-0.6599,-0.6599,-0.6601,-0.6601,-0.6602,-0.6602,-0.6589,-0.6601,-0.6601,-0.6601,-0.6601,-0.6601,0,-0.6536,-0.6539,-0.6545,-0.6551,-0.6556,-0.6555,-0.6561,-0.6565,-0.6571,-0.6576,-0.6581,-0.6588,-0.6595,-0.6598,-0.6604,-0.6608,-0.6608,-0.6609,-0.6609,-0.661,-0.6602,-0.6601,-0.6609,-0.6609,-0.6609,-0.6609,-0.6609,-0.6609,-0.6544,-0.6553,-0.6554,-0.6564,-0.6567,-0.6574,-0.6577,-0.658,-0.6584,-0.6592,-0.6597,-0.6599,-0.6602,-0.6608,-0.6613,-0.6614,-0.6616,-0.6618,-0.6618,-0.6612,-0.6611,-0.661,-0.6608,-0.6618,-0.6618,-0.6625,-0.6625,-0.6626]},{"header":{"parameterUnit":"m.s-1","parameterCategory":1,"la1":30.2991,"la2":30.254,"lo1":-89.0895,"lo2":-89.0444,"dy":0.0017,"dx":0.0017,"nx":28,"ny":28,"refTime":"2024-03-15T21:00:00:Z","depth":0,"parameterNumber":3,"parameterNumberName":"V-component_of_WINDS"},"data":[0,0,0,0,0,0,0,0,0,0,0,0,0,0,0,0,0,0,0,0,0,0,0,0,0,0,0,0,0,0,0,0,0,0,0,0,0,0,0,0,0,0,0,0,0,0,0,0,0,0,0,0,0,0,0,0,0,0,-2.9596,-2.9598,0,-2.9781,-2.9783,-2.9785,-2.988,-2.988,-2.988,-2.988,-3.0065,-3.0069,-3.0074,0,0,0,0,0,0,0,0,0,0,0,0,0,-2.9319,-2.9324,-2.9595,-2.9598,-2.96,-2.9781,-2.9783,-2.9786,-2.988,-2.988,-2.988,-2.988,-3.0063,-3.0069,-3.0075,0,0,0,0,0,0,0,0,0,0,0,0,0,-2.9465,-2.9325,-2.9595,-2.9669,-2.9677,-2.978,-2.9783,-2.9786,-2.988,-2.988,-2.988,-2.988,-3.0061,-3.0068,-3.0075,-3.0117,0,0,-3.0098,-3.0101,0,0,0,0,0,0,0,0,-2.9457,-2.9475,-2.9656,-2.9664,-2.9674,-2.9808,-2.9754,-2.9897,-2.988,-2.9803,-2.988,-2.988,-2.9979,-2.9993,-3.0027,-3.0126,-3.0134,-3.0098,-3.0103,-3.0106,-3.0108,0,0,0,0,0,0,0,-2.9446,-2.9468,-2.9669,-2.9658,-2.9669,-2.9692,-2.9712,-2.9781,-2.9887,-2.9809,-2.9817,-2.9838,-2.9984,-3.002,-3.0032,-3.0136,-3.0098,-3.0104,-3.0109,-3.0112,-3.0278,-3.0278,0,0,0,0,0,0,-2.9425,-2.9459,-2.9663,-2.9674,-2.9563,-2.9696,-2.972,-2.9764,-2.9887,-2.9906,-2.9837,-2.9841,-3.0007,-3.0023,-3.0039,-3.0096,-3.0106,-3.0112,-3.0117,-3.0278,-3.0278,-3.0278,0,0,0,0,0,0,-2.9419,-2.9442,-2.9655,-2.9569,-2.9597,-2.9701,-2.975,-2.9768,-2.9804,-2.9908,-2.9927,-2.9855,-3.0008,-3.0029,-3.0097,-3.0104,-3.0116,-3.0122,-3.0278,-3.0278,-3.0278,-3.021,0,0,0,0,0,0,-2.941,-2.9439,-2.9457,-2.9568,-2.9602,-2.9712,-2.9751,-2.9771,-2.9817,-2.9824,-2.993,-2.9947,-3.001,-3.0086,-3.0104,-3.0114,-3.0128,-3.0278,-3.0278,-3.0278,-3.0212,-3.0208,-3.0204,0,0,0,0,0,-2.94,-2.943,-2.9458,-2.9482,-2.9627,-2.9712,-2.9731,-2.9804,-2.9817,-2.9836,-2.9902,-2.9944,-3.01,-3.0092,-3.0114,-3.0126,-3.0278,-3.0278,-3.0278,-3.0214,-3.0209,-3.0204,0,0,0,0,0,0,-2.9315,-2.9446,-2.9478,-2.9545,-2.9617,-2.9728,-2.9754,-2.9796,-2.9864,-2.9868,-2.9953,-2.9976,-3.0037,-3.0088,-3.0077,-3.0172,-3.0193,-3.0197,-3.0137,-3.0133,-3.0129,-3.0115,-3.0134,0,0,0,0,0,-2.9305,-2.9365,-2.9475,-2.9523,-2.9558,-2.9649,-2.9689,-2.9739,-2.9816,-2.9847,-2.9918,-2.999,-3.0056,-3.0097,-3.0163,-3.022,-3.0244,-3.0239,-3.0234,-3.0231,-3.0234,-3.0267,-3.0266,-3.0279,-3.0279,-3.0279,0,0,-2.9283,-2.9361,-2.9394,-2.9508,-2.957,-2.9629,-2.9674,-2.9735,-2.9779,-2.9855,-2.9925,-2.998,-3.0066,-3.0129,-3.016,-3.0174,-3.0235,-3.0231,-3.0227,-3.0232,-3.0267,-3.0266,-3.0265,-3.0279,-3.0279,-3.0279,0,0,-2.9273,-2.9339,-2.9387,-2.9448,-2.9541,-2.9602,-2.9613,-2.9718,-2.9758,-2.983,-2.9888,-2.9941,-3.0052,-3.0111,-3.0155,-3.0168,-3.0209,-3.0187,-3.0165,-3.0197,-3.0196,-3.0196,-3.02,-3.0201,-3.0189,-3.0189,-3.0189,0,-2.9234,-2.9327,-2.9405,-2.9463,-2.9511,-2.9585,-2.9633,-2.9688,-2.9797,-2.9828,-2.9841,-2.9982,-3.0045,-3.0123,-3.0126,-3.0159,-3.0174,-3.0175,-3.019,-3.0191,-3.0191,-3.0196,-3.0198,-3.0186,-3.0186,-3.0186,-3.0187,0,-2.9274,-2.9337,-2.9364,-2.947,-2.9521,-2.9573,-2.9658,-2.97,-2.9745,-2.9804,-2.9875,-2.9953,-3.0036,-3.0058,-3.0102,-3.0142,-3.0148,-3.0174,-3.0197,-3.0186,-3.0192,-3.0194,-3.0181,-3.0182,-3.0183,-3.0184,0,0,-2.9217,-2.9365,-2.9374,-2.9423,-2.9531,-2.9581,-2.9636,-2.9719,-2.9753,-2.9825,-2.9873,-2.9965,-2.9991,-3.0041,-3.0092,-3.012,-3.0125,-3.0144,-3.0147,-3.0138,-3.0173,-3.0152,-3.0153,-3.0152,-3.0153,-3.0153,-3.0166,0,-2.9223,-2.9328,-2.9399,-2.9475,-2.9534,-2.9605,-2.9653,-2.9723,-2.9779,-2.9836,-2.9897,-2.9962,-2.9991,-3.0022,-3.0052,-3.0117,-3.0133,-3.0118,-3.0196,-3.0198,-3.0173,-3.0157,-3.0135,-3.0143,-3.0169,-3.0169,-3.017,0,-2.9244,-2.9317,-2.9398,-2.9501,-2.9528,-2.957,-2.9652,-2.9706,-2.9787,-2.9826,-2.9882,-2.9934,-2.9994,-3.001,-3.0093,-3.0081,-3.0117,-3.0154,-3.0156,-3.0166,-3.0183,-3.0167,-3.0148,-3.0149,-3.0174,-3.0174,-3.0174,0,-2.9195,-2.9312,-2.9377,-2.9416,-2.9537,-2.9564,-2.9616,-2.9697,-2.9742,-2.9813,-2.9843,-2.9918,-2.9959,-3.0016,-3.0086,-3.0092,-3.0162,-3.0184,-3.0194,-3.0192,-3.0206,-3.0204,-3.0193,-3.0228,-3.0228,-3.0228,-3.0228,0,-2.9194,-2.9242,-2.9356,-2.9395,-2.945,-2.9532,-2.9583,-2.964,-2.9712,-2.9762,-2.9827,-2.9872,-2.9963,-3.0019,-3.0074,-3.0134,-3.0152,-3.0184,-3.0198,-3.0179,-3.0174,-3.0204,-3.0205,-3.0229,-3.0229,-3.0229,-3.0229,0,-2.9148,-2.9227,-2.9302,-2.941,-2.9438,-2.9474,-2.9566,-2.9606,-2.9666,-2.9729,-2.9748,-2.9841,-2.991,-2.9987,-3.0081,-3.0118,-3.0174,-3.0194,-3.0148,-3.0156,-3.0161,-3.016,-3.0168,-3.0173,-3.0205,-3.0204,-3.0204,0,-2.9143,-2.9181,-2.9294,-2.9334,-2.9384,-2.9446,-2.9493,-2.9574,-2.962,-2.9715,-2.9743,-2.9818,-2.9882,-2.999,-3.0064,-3.0136,-3.0159,-3.0157,-3.017,-3.0149,-3.0159,-3.0156,-3.016,-3.0153,-3.0152,-3.0151,-3.0151,0,-2.9125,-2.9162,-2.9228,-2.9308,-2.9362,-2.9428,-2.9497,-2.9525,-2.9619,-2.9666,-2.974,-2.9789,-2.9887,-2.996,-3.0041,-3.0092,-3.0136,-3.0146,-3.0152,-3.0133,-3.0104,-3.012,-3.0137,-3.0146,-3.0146,-3.0147,-3.0147,-3.0147,-2.91,-2.9137,-2.9223,-2.9294,-2.9354,-2.9416,-2.946,-2.9525,-2.9588,-2.9675,-2.9718,-2.9791,-2.987,-2.9984,-3.0034,-3.009,-3.0104,-3.0113,-3.0115,-3.0116,-3.0111,-3.0095,-3.0105,-3.0105,-3.0105,-3.0106,-3.0106,0,-2.9086,-2.9144,-2.9209,-2.9303,-2.9359,-2.9398,-2.9475,-2.9519,-2.9582,-2.9653,-2.9716,-2.9799,-2.987,-2.995,-3.0026,-3.0055,-3.0078,-3.0072,-3.0071,-3.0082,-3.0094,-3.0081,-3.0053,-3.0053,-3.0053,-3.0053,-3.0053,-3.0053,-2.9085,-2.915,-2.9197,-2.9293,-2.9351,-2.9424,-2.9465,-2.9522,-2.9579,-2.967,-2.973,-2.9783,-2.9857,-2.9939,-3.0005,-3.0026,-3.0051,-3.004,-3.0067,-3.0077,-3.0081,-3.0085,-3.0074,-3.0044,-3.0044,-3.005,-3.005,-3.005]}]]